COSMOS 2425 (GLONASS) 1 29670U 06062A 21098.11264815 -.00000001 00000-0 00000-0 0 9998 2 29670 64.8647 257.8229 0024363 348.6658 195.9240 2.13113665111173 COSMOS 2426 (GLONASS) 1 29671U 06062B 21099.43436274 -.00000014 00000-0 00000-0 0 9999 2 29671 64.8752 257.9183 0020241 174.1885 192.9334 2.12963024111190 COSMOS 2433 (GLONASS) 1 32275U 07052A 21099.87520531 -.00000094 00000-0 00000-0 0 9999 2 32275 66.0519 19.0608 0003264 282.6271 351.1045 2.13104124104726 COSMOS 2432 (GLONASS) 1 32276U 07052B 21099.70650237 -.00000095 00000-0 00000+0 0 9999 2 32276 66.0636 19.1609 0011858 330.9139 122.8451 2.13103564104728 COSMOS 2434 (GLONASS) 1 32393U 07065A 21099.70576140 -.00000018 00000-0 00000+0 0 9998 2 32393 64.4823 256.2598 0004936 82.3209 309.6226 2.13103117103430 COSMOS 2436 (GLONASS) 1 32395U 07065C 21099.72126525 -.00000018 00000-0 00000-0 0 9991 2 32395 64.4941 256.3123 0015587 7.5947 172.3620 2.13102958103367 COSMOS 2456 (GLONASS) 1 36111U 09070A 21099.63333969 .00000072 00000-0 00000-0 0 9990 2 36111 64.2645 135.9424 0005560 304.8393 202.9891 2.13099180 88094 COSMOS 2457 (GLONASS) 1 36112U 09070B 21099.61489372 .00000072 00000-0 00000-0 0 9999 2 36112 64.2468 135.8301 0004739 189.7000 67.8136 2.13101431 88096 COSMOS 2458 (GLONASS) 1 36113U 09070C 21099.61489372 .00000072 00000-0 00000-0 0 9990 2 36113 64.2523 135.8535 0005762 303.6678 312.9447 2.13082536 88096 COSMOS 2459 (GLONASS) 1 36400U 10007A 21099.36565956 -.00000096 00000-0 00000+0 0 9992 2 36400 65.9488 18.0130 0026854 348.1811 111.0728 2.13105674 86439 COSMOS 2461 (GLONASS) 1 36401U 10007B 21100.08567819 -.00000093 00000-0 00000+0 0 9992 2 36401 65.9457 17.9534 0021719 4.9097 288.3098 2.13103837 86459 COSMOS 2460 (GLONASS) 1 36402U 10007C 21100.14761038 -.00000093 00000-0 00000+0 0 9999 2 36402 65.9325 17.9085 0001901 341.3807 303.4801 2.13106611 86457 COSMOS 2464 (GLONASS) 1 37139U 10041C 21099.43479262 -.00000018 00000-0 00000-0 0 9997 2 37139 64.0831 255.5601 0028586 14.4133 31.0799 2.13100704 82508 COSMOS 2471 (GLONASS) 1 37372U 11009A 21099.94745932 -.00000094 00000-0 00000-0 0 9991 2 37372 65.9288 17.8540 0013438 230.3033 61.2054 2.13081222 78723 COSMOS 2474 (GLONASS) 1 37829U 11055A 21100.21110119 .00000073 00000-0 00000+0 0 9990 2 37829 64.5795 137.0728 0010456 248.2451 198.1175 2.13101741 74101 COSMOS 2476 (GLONASS) 1 37867U 11064A 21100.12961014 .00000073 00000-0 00000+0 0 9990 2 37867 64.5597 137.1113 0021842 240.4149 189.9076 2.13101900 73453 COSMOS 2477 (GLONASS) 1 37868U 11064B 21100.14791189 .00000073 00000-0 00000+0 0 9997 2 37868 64.5672 137.1727 0019361 242.2382 20.4732 2.13101696 73406 COSMOS 2475 (GLONASS) 1 37869U 11064C 21099.74430126 .00000072 00000-0 00000-0 0 9992 2 37869 64.5753 137.1903 0023532 260.1983 10.5016 2.13101869 73401 COSMOS 2485 (GLONASS) 1 39155U 13019A 21099.87550655 .00000072 00000-0 00000+0 0 9997 2 39155 64.7261 137.4547 0022210 236.3721 43.4894 2.13101870 61915 COSMOS 2492 (GLONASS) 1 39620U 14012A 21099.26402569 -.00000096 00000-0 00000+0 0 9998 2 39620 65.8192 17.6805 0014967 326.8575 238.7755 2.13103184 54855 COSMOS 2500 (GLONASS) 1 40001U 14032A 21099.47351642 -.00000096 00000-0 00000-0 0 9994 2 40001 65.7615 17.5682 0004910 218.5257 7.6270 2.13102548 53073 COSMOS 2501 (GLONASS) 1 40315U 14075A 21099.50253991 -.00000018 00000-0 00000-0 0 9995 2 40315 63.7919 256.3907 0016009 206.3722 208.1287 2.13101354 49483 COSMOS 2514 (GLONASS) 1 41330U 16008A 21099.68348748 -.00000095 00000-0 00000-0 0 9990 2 41330 65.5626 17.3588 0008852 224.0858 346.1593 2.13102949 40249 COSMOS 2516 (GLONASS) 1 41554U 16032A 21099.63447390 -.00000018 00000-0 00000-0 0 9998 2 41554 64.0185 256.5414 0011682 211.8706 214.4972 2.13106816 37855 COSMOS 2522 (GLONASS) 1 42939U 17055A 21099.68765338 -.00000017 00000-0 00000-0 0 9991 2 42939 64.2528 256.8062 0005246 244.2704 87.2600 2.13101915 27606